Location: Mountain Grove
(34.0887°N, 86.6172°W)
Time: 21:58:39
(UTC+00:00)

Cosmos 1825 Rocket - Pass Details

Date: 14 July 2020
Orbit: 603 x 631 km, 82.5° (Epoch: 08 August)

Event Time Altitude Azimuth Distance (km) Brightness Sun altitude
Rises 01:33:25 0° 180° (S) 2,895 6.7 -7.0°
Reaches altitude 10° 01:35:39 10° 178° (S) 1,996 5.8 -7.4°
Maximum altitude 01:40:03 70° 95° (E) 670 3.6 -8.2°
Drops below altitude 10° 01:44:30 10° 12° (NNE) 2,016 6.5 -8.9°
Sets 01:46:45 0° 10° (N) 2,928 7.4 -9.3°
